Zapata, TX

3:47 AM CST on November 23, 2017 (GMT -0600)
Zapata

Weather History for KAPY - July, 2013

Change the Weather History Date:

Thursday, July 25, 2013

  Actual Average (KLRD) Record (KLRD)
Temperature  
Mean Temperature 90 °F -  
Max Temperature 104 °F 97 °F 110 °F (1994)
Min Temperature 77 °F 75 °F 66 °F (1915)
Cooling Degree Days 26    
Growing Degree Days 40 (Base 50)    
Moisture  
Dew Point 65 °F    
Average Humidity 50    
Maximum Humidity 82    
Minimum Humidity 19    
Precipitation  
Precipitation 0.00 in - - ()
Sea Level Pressure  
Sea Level Pressure 29.94 in    
Wind  
Wind Speed 9 mph (SE)    
Max Wind Speed 17 mph    
Max Gust Speed 24 mph    
Visibility 10 miles    
Events      
Averages and records for this station are not official NWS values.
T = Trace of Precipitation, MM = Missing Value Source: NWS Daily Summary

Daily Weather History Graph

Daily Weather History Graph

Search for Another Location

Airport or City:

Trip Planner

Search our weather history database for the weather conditions in past years. The results will help you decide how hot, cold, wet, or windy it might be!

Date:

Astronomy

Jul. 25, 2013 Rise Set
Actual Time 6:57 AM CDT 8:28 PM CDT
Civil Twilight 6:32 AM CDT 8:54 PM CDT
Nautical Twilight 6:02 AM CDT 9:24 PM CDT
Astronomical Twilight 5:30 AM CDT 9:56 PM CDT
Moon 10:38 PM CDT (7/25) 10:04 AM CDT (7/25)
Length of Visible Light 14h 21m
Length of Day
13h 31m
Waning Gibbous, 88% of the Moon is Illuminated
Jul 25
Waning Gibbous
Jul 29
Last Quarter
Aug 6
New
Aug 14
First Quarter
Aug 20
Full

Hourly Weather History & Observations

Time (CDT) Temp. Heat Index Dew Point Humidity Pressure Visibility Wind Dir Wind Speed Gust Speed Precip Events Conditions
12:15 AM 83.1 °F 85.9 °F 67.6 °F 59% 29.93 in 10.0 mi SE 9.2 mph - N/A   Clear
12:35 AM 82.6 °F 85.3 °F 67.6 °F 60% 29.93 in 10.0 mi ESE 11.5 mph 16.1 mph N/A   Clear
12:55 AM 81.9 °F 84.8 °F 68.0 °F 63% 29.94 in 10.0 mi SE 9.2 mph 16.1 mph N/A   Clear
1:15 AM 81.5 °F 84.4 °F 68.2 °F 64% 29.94 in 10.0 mi SE 10.4 mph 19.6 mph N/A   Clear
1:35 AM 81.0 °F 83.8 °F 68.2 °F 65% 29.94 in 10.0 mi SE 11.5 mph - N/A   Clear
1:55 AM 80.6 °F 83.2 °F 68.0 °F 65% 29.94 in 10.0 mi SE 8.1 mph - N/A   Clear
2:15 AM 80.2 °F 83.0 °F 68.2 °F 67% 29.94 in 10.0 mi ESE 9.2 mph - N/A   Clear
2:35 AM 79.9 °F - 68.2 °F 67% 29.93 in 10.0 mi ESE 8.1 mph - N/A   Clear
2:55 AM 79.7 °F - 68.4 °F 68% 29.93 in 10.0 mi ESE 8.1 mph - N/A   Clear
3:15 AM 79.0 °F - 68.7 °F 71% 29.93 in 10.0 mi ESE 6.9 mph - N/A   Clear
3:35 AM 78.8 °F - 69.1 °F 72% 29.93 in 10.0 mi SE 8.1 mph - N/A   Clear
3:55 AM 78.6 °F - 69.3 °F 73% 29.93 in 10.0 mi SE 6.9 mph - N/A   Clear
4:15 AM 78.4 °F - 69.8 °F 75% 29.93 in 10.0 mi SE 6.9 mph - N/A   Clear
4:35 AM 78.3 °F - 70.2 °F 76% 29.93 in 10.0 mi ESE 5.8 mph - N/A   Clear
4:55 AM 78.1 °F - 70.3 °F 77% 29.93 in 10.0 mi ESE 5.8 mph - N/A   Clear
5:15 AM 77.9 °F - 70.7 °F 78% 29.93 in 10.0 mi ESE 5.8 mph - N/A   Clear
5:35 AM 77.9 °F - 70.9 °F 79% 29.93 in 10.0 mi SE 5.8 mph - N/A   Clear
5:55 AM 77.9 °F - 70.9 °F 79% 29.94 in 10.0 mi SE 5.8 mph - N/A   Clear
6:15 AM 77.9 °F - 71.1 °F 79% 29.95 in 10.0 mi SE 5.8 mph - N/A   Clear
6:35 AM 77.9 °F - 71.1 °F 79% 29.95 in 10.0 mi SE 6.9 mph - N/A   Clear
6:55 AM 77.4 °F - 71.1 °F 81% 29.95 in 10.0 mi ESE 4.6 mph - N/A   Clear
7:15 AM 77.2 °F - 71.4 °F 82% 29.96 in 7.0 mi ESE 4.6 mph - N/A   Clear
7:35 AM 77.9 °F - 71.6 °F 81% 29.97 in 7.0 mi ESE 3.5 mph - N/A   Clear
7:55 AM 79.2 °F - 71.6 °F 78% 29.97 in 7.0 mi SE 8.1 mph - N/A   Clear
8:15 AM 80.6 °F 84.6 °F 71.6 °F 74% 29.98 in 7.0 mi SE 8.1 mph - N/A   Clear
8:55 AM 82.6 °F 87.1 °F 70.9 °F 68% 29.98 in 10.0 mi SE 11.5 mph 16.1 mph N/A   Scattered Clouds
9:15 AM 83.5 °F 87.7 °F 70.3 °F 64% 29.98 in 10.0 mi SSE 10.4 mph - N/A   Scattered Clouds
9:35 AM 84.9 °F 89.4 °F 70.0 °F 61% 29.98 in 10.0 mi SSE 6.9 mph - N/A   Scattered Clouds
10:15 AM 86.7 °F 90.3 °F 68.4 °F 54% 29.98 in 10.0 mi SSE 9.2 mph - N/A   Scattered Clouds
10:55 AM 89.6 °F 92.6 °F 67.1 °F 47% 29.98 in 10.0 mi SSE 8.1 mph - N/A   Clear
11:15 AM 90.1 °F 93.5 °F 67.3 °F 47% 29.98 in 10.0 mi SSE 5.8 mph - N/A   Scattered Clouds
12:15 PM 93.4 °F 95.6 °F 64.8 °F 39% 29.98 in 10.0 mi SE 8.1 mph - N/A   Clear
12:35 PM 94.8 °F 96.7 °F 64.2 °F 36% 29.97 in 10.0 mi SE 5.8 mph - N/A   Clear
12:55 PM 95.7 °F 97.2 °F 63.0 °F 34% 29.97 in 10.0 mi SSE 6.9 mph - N/A   Clear
1:15 PM 96.8 °F 97.5 °F 61.9 °F 31% 29.97 in 10.0 mi SSE 5.8 mph - N/A   Clear
1:55 PM 98.4 °F 99.2 °F 60.6 °F 29% 29.95 in 10.0 mi SSE 4.6 mph 17.3 mph N/A   Clear
2:55 PM 101.3 °F 101.1 °F 57.7 °F 24% 29.94 in 10.0 mi SE 13.8 mph 17.3 mph N/A   Clear
3:15 PM 101.7 °F 101.1 °F 56.8 °F 23% 29.92 in 10.0 mi ESE 5.8 mph - N/A   Clear
4:15 PM 102.6 °F 101.4 °F 55.6 °F 21% 29.91 in 10.0 mi SSE 12.7 mph 18.4 mph N/A   Mostly Cloudy
4:35 PM 104.2 °F 102.6 °F 53.6 °F 19% 29.91 in 10.0 mi SE 8.1 mph - N/A   Scattered Clouds
4:55 PM 104.7 °F 103.3 °F 54.3 °F 19% 29.90 in 10.0 mi SSE 10.4 mph 19.6 mph N/A   Scattered Clouds
5:15 PM 104.0 °F 102.3 °F 53.8 °F 19% 29.90 in 10.0 mi SSE 10.4 mph 20.7 mph N/A   Scattered Clouds
5:35 PM 102.6 °F 100.9 °F 54.1 °F 20% 29.89 in 10.0 mi SE 11.5 mph - N/A   Scattered Clouds
5:55 PM 103.6 °F 101.8 °F 53.8 °F 19% 29.89 in 10.0 mi SE 12.7 mph 19.6 mph N/A   Scattered Clouds
6:15 PM 100.9 °F 99.1 °F 54.1 °F 21% 29.89 in 10.0 mi SSE 12.7 mph 19.6 mph N/A   Scattered Clouds
6:35 PM 102.0 °F 100.1 °F 53.8 °F 20% 29.89 in 10.0 mi ESE 10.4 mph 16.1 mph N/A   Clear
6:55 PM 101.7 °F 101.1 °F 56.8 °F 23% 29.89 in 10.0 mi ESE 13.8 mph 21.9 mph N/A   Clear
7:15 PM 100.4 °F 99.3 °F 56.7 °F 23% 29.89 in 10.0 mi ESE 15.0 mph 21.9 mph N/A   Clear
7:35 PM 99.5 °F 98.9 °F 58.1 °F 25% 29.90 in 10.0 mi ESE 15.0 mph 20.7 mph N/A   Clear
7:55 PM 96.8 °F 95.8 °F 57.2 °F 27% 29.90 in 10.0 mi SE 13.8 mph 20.7 mph N/A   Clear
8:15 PM 96.3 °F 96.3 °F 59.7 °F 30% 29.91 in 10.0 mi SE 9.2 mph 21.9 mph N/A   Clear
8:35 PM 94.8 °F 94.9 °F 61.0 °F 32% 29.91 in 10.0 mi SE 13.8 mph 20.7 mph N/A   Clear
8:55 PM 93.4 °F 93.5 °F 60.8 °F 34% 29.92 in 10.0 mi SE 13.8 mph 19.6 mph N/A   Clear
9:15 PM 92.5 °F 92.6 °F 60.8 °F 35% 29.93 in 10.0 mi SE 13.8 mph 21.9 mph N/A   Clear
9:35 PM 91.4 °F 91.4 °F 61.0 °F 36% 29.94 in 10.0 mi SE 17.3 mph 24.2 mph N/A   Clear
9:55 PM 90.5 °F 90.7 °F 61.9 °F 38% 29.95 in 10.0 mi SE 13.8 mph 20.7 mph N/A   Clear
10:15 PM 89.6 °F 90.4 °F 63.3 °F 41% 29.96 in 10.0 mi SE 10.4 mph 20.7 mph N/A   Clear
10:35 PM 88.7 °F 90.1 °F 64.4 °F 44% 29.97 in 10.0 mi SE 10.4 mph 18.4 mph N/A   Clear
10:55 PM 87.8 °F 90.0 °F 65.8 °F 48% 29.98 in 10.0 mi SE 8.1 mph 17.3 mph N/A   Clear
11:15 PM 87.1 °F 89.5 °F 66.4 °F 50% 29.98 in 10.0 mi SE 13.8 mph 21.9 mph N/A   Clear
11:35 PM 86.4 °F 89.4 °F 67.3 °F 53% 29.99 in 10.0 mi SE 11.5 mph 17.3 mph N/A   Clear
11:55 PM 85.5 °F 88.2 °F 67.3 °F 54% 29.99 in 10.0 mi SE 10.4 mph 18.4 mph N/A   Clear